Skip Page Navigation
NASA JPL Caltech
NASA Logo - Jet Propulsion Laboratory + View the NASA Portal
+ Near-Earth Object (NEO) Program
Search JPL
JPL Home Earth Solar System Stars & Galaxies Technology
JPL Solar System Dynamics
BODIES ORBITS EPHEMERIDES TOOLS PHYSICAL DATA DISCOVERY FAQ SITE MAP
JPL Small-Body Database Browser
Search: [ help ]  
5967 Edithlevy (1991 CM5)
Classification: Inner Main-belt Asteroid          SPK-ID: 2005967
Ephemeris | Orbit Diagram | Orbital Elements | Physical Parameters | Discovery Circumstances ]

[ hide orbit diagram ]
Orbit Diagram
Note: Make sure you have Java enabled on your browser to see the applet. This applet is provided as a 3D orbit visualization tool. The applet was implemented using 2-body methods, and hence should not be used for determining accurate long-term trajectories (over several years or decades) or planetary encounter circumstances. For accurate long-term ephemerides, please instead use our Horizons system.
Orbit Viewer

Additional Notes: the orbits shown in the applet are color coded. The planets are white lines, and the asteroid/comet is a blue line. The bright white line indicates the portion of the orbit that is above the ecliptic plane, and the darker portion is below the ecliptic plane. Likewise for the asteroid/comet orbit, the light blue indicates the portion above the ecliptic plane, and the dark blue the portion below the ecliptic plane.

Orbit Viewer applet originally written and kindly provided by Osamu Ajiki (AstroArts), and further modified by Ron Baalke (JPL).


Orbital Elements at Epoch 2456400.5 (2013-Apr-18.0) TDB
Reference: JPL 1 (heliocentric ecliptic J2000)
 Element Value Uncertainty (1-sigma)   Units 
e .05521109512714197 7.0207e-08  
a 1.941594763286939 1.0552e-08 AU
q 1.834397190112743 1.3775e-07 AU
i 24.1103113673287 7.6716e-06 deg
node 125.8109726001953 1.7758e-05 deg
peri 110.232671237163 7.508e-05 deg
M 331.8164255906274 7.0148e-05 deg
tp 2456477.862391420855
(2013-Jul-04.36239142)
0.00019248 JED
period 988.1805801838244
2.71
8.0558e-06
2.206e-08
d
yr
n .3643058841867057 2.9699e-09 deg/d
Q 2.048792336461135 1.1135e-08 AU
  Orbit Determination Parameters
   # obs. used (total)      677  
   data-arc span      21442 days (58.70 yr)  
   first obs. used      1954-08-08  
   last obs. used      2013-04-22  
   planetary ephem.      DE405  
   SB-pert. ephem.      SB405-CPV-2  
   condition code      0  
   fit RMS      .49842  
   data source      ORB  
   producer      Otto Matic  
   solution date      2013-Apr-29 13:19:23  

Additional Information
 Earth MOID = .872048 AU 
 T_jup = 3.793 
[ show covariance matrix ]

Ephemeris | Orbit Diagram | Orbital Elements | Physical Parameters | Discovery Circumstances ]

Physical Parameter Table
Parameter Symbol Value Units Sigma Reference Notes
absolute magnitude H 13.8 mag n/a PDS3 (MPC 23506)  
rotation period rot_per 66. h n/a Asteroid Lightcurve DataBase (Rev. 2013-May-01) Published Reference List:
[Warner, B.D. (2010) Minor Planet Bul. 37, 112-118.]

5967 Edithlevy (1991 CM5)          Discovered 1991-Feb-09 by Shoemaker, C. S. at Palomar (675)
Reference: DISCOVERY.DBLast Updated: 2003-08-29

Alternate Designations
 1991 CM5 = 1989 OK1 = 1992 RC 
Ephemeris | Orbit Diagram | Orbital Elements | Physical Parameters | Discovery Circumstances ]
ABOUT SSD CREDITS/AWARDS PRIVACY/COPYRIGHT GLOSSARY LINKS
FirstGov 2013-May-22 05:22 UT
(server date/time)  
NASA Home Page
Site Manager:   Donald K. Yeomans
Webmaster  Alan B. Chamberlin